Location: Newark
(48.9320°N, 2.2664°E)
Time: 02:25:50
(UTC+00:00)

Vanguard 1 Rocket - Pass Details

Date: 22 February 2020
Orbit: 650 x 4226 km, 34.3° (Epoch: 08 April)

Event Time Altitude Azimuth Distance (km) Brightness Sun altitude
Rises 03:19:12 0° 236° (SW) 4,225 - -34.3°
Reaches altitude 10° 03:23:38 10° 217° (SW) 2,733 - -33.6°
Maximum altitude 03:27:14 16° 180° (S) 1,982 - -33.1°
Drops below altitude 10° 03:30:12 10° 141° (SE) 2,170 - -32.6°
Exits shadow 03:30:27 - 138° (SE) 2,220 9.6 -32.6°
Sets 03:33:07 0° 118° (ESE) 2,971 10.5 -32.2°
